Vertical_Velocity
-2 -1 -1 -2 -3 -4 -2 -3 1 6 -7 2 3 -4 -0 -1 -2 0 -0 -4 -2 -1 1 -2 5 8 -4 22 6 19 3 6 -3 8 -0 10 24 9
-2 -3 -1 -1 -3 -3 -3 -1 -3 -0 4 2 2 -2 -1 2 -3 -1 -1 -3 -2 -0 -0 5 3 -0 8 3 6 5 -6 22 4 47 1 -9 65 -5
-1 -3 -1 0 -0 -2 -4 -2 -3 -3 0 -1 2 1 0 -4 1 -3 -3 0 2 1 2 -7 -10 -7 -5 0 -2 -1 -7 -8 10 13 2 -2 -0 4
-3 -4 -3 -2 1 -1 -2 -2 -1 -3 -2 0 -1 0 2 3 -0 -1 1 -2 -3 2 0 -4 -0 -9 -3 -6 -7 -3 -3 -3 -2 2 19 31 9 -2
-2 -3 -1 -1 -1 -1 -2 -3 -1 -3 -2 1 -2 0 -3 3 3 1 3 0 1 -6 -0 1 0 0 -3 -6 -3 -4 -0 -7 -3 3 4 4 4 18
0 1 1 0 1 -1 -1 -1 -3 0 -3 -1 1 -2 -1 -0 -2 1 2 2 0 0 2 -3 -2 -6 -7 -5 -3 -1 -3 0 -2 4 0 -2 2 -0
-2 -0 -1 1 2 -2 0 -3 -1 -0 -1 -1 -2 -1 -3 1 3 -3 -4 -2 -6 0 -4 -5 -1 2 1 -3 -1 -8 -6 -4 -2 0 -1 2 -1 2
2 -0 2 4 3 -1 -1 2 -0 -0 -1 4 -2 -1 -2 -1 1 2 2 0 -2 -9 1 -12 1 -8 -2 1 -3 -3 -5 -13 -3 -2 -6 -6 -4 -5
-0 -1 3 3 2 1 -1 3 -1 1 2 3 -0 -1 -0 -4 -1 -1 0 3 1 -6 2 2 -2 -5 -1 -5 1 2 -2 -2 -5 -3 -2 -1 -4 2
0 4 4 3 2 1 -1 -1 -0 -1 0 7 1 0 0 -3 -2 0 -3 1 -4 -7 -6 10 -8 -0 -1 -5 -7 -2 2 -0 -3 1 0 1 -3 -4
2 1 3 1 -2 -0 1 -0 -1 -2 1 2 1 1 1 -0 -0 0 -5 -0 -2 -5 -14 -3 -8 -4 -1 -5 -4 -5 -3 -3 -3 -3 -1 1 4 4
-0 3 2 2 -3 -1 1 0 1 0 2 1 -1 1 0 -3 -2 -2 -2 -2 -5 3 -14 -4 -10 -11 0 -8 -4 -8 -5 -8 -0 -2 -3 -3 -2 2
3 1 -0 0 2 -1 -1 0 1 2 0 0 1 1 0 -0 -2 -3 -2 -2 -2 -5 -10 -3 -2 -9 -8 -5 1 -8 -6 -6 -4 -4 -2 -1 1 0
1 2 1 2 -0 0 0 1 1 2 0 -0 1 -0 -0 -1 -2 -2 -2 -3 -5 -5 -6 -12 -4 -7 -8 -2 -2 5 -3 -4 -2 -4 -5 -2 0 0
1 1 0 -0 -0 -0 -0 0 0 2 0 1 1 -1 -1 -3 -2 0 -2 -3 0 -7 -8 -5 -7 -5 -8 -8 -0 7 -2 -2 -5 -1 -3 -4 1 -2
1 2 1 -1 1 1 -0 -1 1 0 1 2 1 -1 -2 -2 -1 -1 -1 -4 -1 -4 -9 -7 -6 -2 -2 -10 -5 3 -6 2 -3 -5 -2 0 -0 -2
2 1 0 1 1 0 0 -0 -1 0 1 1 -1 -2 -2 -1 -2 -3 -4 -2 -2 -4 3 -4 -6 -2 -1 -6 -7 -7 -2 -2 -4 -3 -5 2 -2 -3
1 -1 1 -1 -1 0 -0 -1 -1 1 1 -0 -0 -0 -2 -2 0 -3 -3 -1 -1 -3 -3 -6 -0 -2 2 10 -15 4 -3 -2 -2 1 -3 1 1 -9
2 0 0 -1 -0 1 0 -0 -0 1 1 -1 -1 -1 -1 -2 -1 -2 -2 -3 0 -2 -2 -4 -4 -3 5 7 0 -12 7 -5 2 -1 -3 -2 7 -1
1 1 -1 1 -1 1 -0 -0 -0 0 1 -0 -0 -0 -1 0 -1 -3 -3 -2 -2 -1 4 -7 -6 -2 -2 -0 6 3 -16 -0 -4 5 2 -6 2 1
1 1 0 1 -0 1 0 0 -1 0 1 -0 0 -0 -2 -0 -2 -1 2 -2 -2 -0 7 3 -4 -4 0 -2 4 2 -1 -7 -4 1 7 1 -5 -4
-1 -1 -1 0 0 0 1 -0 -2 -0 0 -0 -1 -1 -2 -2 -1 3 -2 0 -1 -4 1 -2 -3 -2 -5 -5 1 5 4 -2 -5 -1 -0 -1 -0 5
-3 -0 -2 1 1 0 1 -0 -1 0 2 -0 -0 -2 -0 -1 -1 0 -1 -2 -3 -1 -3 3 -1 -3 -1 -2 -1 3 2 0 -1 0 2 -9 -0 3
Height
5661 5656 5651 5646 5640 5635 5631 5628 5625 5621 5616 5613 5608 5604 5600 5596 5593 5592 5591 5592 5593 5596 5599 5602 5606 5613 5616 5618 5621 5625 5628 5634 5637 5641 5649 5652 5659 5668
5649 5645 5639 5633 5628 5624 5619 5616 5613 5611 5607 5604 5601 5596 5593 5590 5587 5584 5583 5584 5584 5585 5589 5593 5594 5601 5603 5603 5606 5611 5618 5617 5626 5626 5635 5641 5644 5656
5636 5631 5626 5621 5616 5611 5606 5603 5600 5598 5596 5592 5590 5588 5585 5581 5577 5576 5574 5573 5573 5575 5576 5580 5585 5584 5588 5590 5593 5601 5605 5609 5609 5616 5622 5629 5635 5641
5622 5617 5612 5607 5603 5598 5593 5589 5587 5585 5583 5580 5578 5576 5575 5572 5569 5566 5565 5564 5564 5564 5565 5567 5569 5575 5575 5578 5581 5586 5593 5596 5599 5602 5605 5614 5618 5624
5606 5601 5597 5592 5587 5583 5579 5575 5571 5570 5568 5566 5564 5563 5562 5562 5560 5558 5555 5553 5554 5554 5554 5555 5557 5559 5562 5564 5567 5570 5573 5578 5584 5586 5590 5594 5601 5607
5590 5584 5580 5576 5572 5567 5563 5559 5555 5553 5553 5552 5551 5549 5548 5548 5547 5547 5545 5544 5542 5542 5543 5544 5546 5547 5547 5548 5553 5554 5556 5559 5565 5569 5574 5578 5582 5590
5574 5570 5566 5560 5556 5551 5546 5542 5540 5537 5537 5537 5537 5536 5535 5534 5534 5534 5533 5531 5530 5529 5528 5526 5527 5527 5528 5530 5532 5535 5538 5540 5545 5547 5553 5560 5565 5570
5556 5551 5547 5543 5538 5534 5531 5528 5525 5523 5521 5522 5522 5522 5522 5521 5521 5521 5520 5519 5517 5516 5516 5514 5514 5512 5512 5511 5512 5514 5517 5519 5524 5526 5531 5539 5546 5551
5541 5535 5531 5528 5524 5519 5514 5512 5511 5509 5507 5507 5507 5507 5507 5507 5507 5507 5505 5504 5502 5501 5502 5499 5497 5496 5495 5491 5491 5494 5495 5496 5500 5503 5509 5515 5522 5530
5523 5519 5515 5511 5508 5504 5501 5498 5496 5495 5494 5494 5494 5494 5494 5493 5493 5492 5491 5489 5486 5484 5485 5484 5481 5479 5475 5471 5469 5468 5469 5472 5475 5480 5484 5489 5496 5503
5508 5505 5501 5498 5494 5491 5488 5485 5483 5481 5481 5481 5481 5482 5481 5481 5480 5479 5476 5474 5471 5466 5464 5464 5460 5458 5454 5449 5446 5444 5445 5447 5451 5456 5460 5465 5471 5479
5495 5492 5488 5485 5481 5478 5476 5473 5470 5469 5469 5469 5469 5469 5469 5467 5466 5464 5461 5459 5455 5452 5446 5444 5439 5435 5436 5429 5424 5419 5420 5422 5426 5430 5435 5441 5448 5455
5482 5479 5475 5472 5469 5466 5463 5461 5460 5459 5459 5458 5458 5458 5456 5455 5453 5450 5447 5444 5441 5437 5433 5431 5428 5422 5418 5417 5411 5403 5398 5397 5401 5406 5412 5418 5424 5431
5470 5466 5463 5460 5457 5455 5452 5451 5450 5449 5448 5448 5448 5446 5445 5443 5441 5438 5435 5432 5430 5426 5422 5417 5413 5407 5402 5398 5393 5389 5383 5379 5380 5382 5388 5396 5402 5408
5458 5455 5452 5449 5446 5443 5442 5441 5440 5439 5439 5438 5437 5436 5435 5432 5429 5427 5425 5423 5420 5414 5410 5403 5399 5394 5387 5377 5372 5370 5366 5365 5363 5365 5368 5374 5380 5385
5448 5446 5442 5438 5435 5433 5432 5431 5431 5430 5430 5428 5427 5425 5424 5422 5419 5419 5417 5413 5410 5403 5395 5391 5386 5381 5374 5366 5357 5353 5349 5351 5348 5349 5352 5355 5357 5363
5439 5435 5431 5428 5426 5425 5424 5423 5422 5421 5420 5418 5417 5416 5414 5412 5410 5409 5407 5404 5400 5393 5386 5380 5373 5368 5362 5356 5349 5342 5337 5334 5332 5334 5335 5337 5337 5340
5429 5426 5422 5419 5418 5417 5415 5414 5413 5412 5411 5409 5408 5407 5405 5403 5402 5400 5397 5394 5388 5382 5376 5370 5364 5358 5353 5348 5339 5336 5330 5326 5320 5318 5318 5321 5320 5319
5421 5417 5414 5411 5409 5408 5406 5405 5404 5403 5402 5400 5399 5397 5396 5395 5393 5391 5388 5383 5377 5372 5365 5360 5353 5347 5344 5339 5333 5325 5320 5317 5315 5311 5307 5306 5308 5306
5412 5409 5406 5403 5401 5399 5398 5396 5395 5394 5393 5392 5390 5388 5387 5386 5384 5381 5378 5372 5367 5361 5356 5349 5343 5337 5333 5328 5326 5319 5309 5307 5304 5303 5301 5297 5295 5295
5404 5401 5398 5395 5392 5391 5389 5388 5386 5385 5384 5383 5381 5380 5378 5377 5375 5372 5368 5362 5357 5352 5347 5340 5334 5328 5322 5317 5314 5309 5302 5295 5294 5292 5291 5290 5287 5285
5394 5392 5389 5386 5384 5382 5381 5379 5378 5376 5376 5375 5373 5372 5370 5368 5366 5362 5358 5353 5349 5344 5337 5331 5324 5319 5313 5306 5302 5298 5293 5287 5282 5280 5280 5278 5276 5275
5383 5382 5380 5377 5375 5373 5372 5371 5369 5368 5368 5367 5365 5364 5363 5360 5357 5354 5349 5344 5340 5334 5328 5323 5317 5311 5304 5297 5291 5287 5282 5276 5270 5268 5267 5264 5264 5263